Time,TemperatureF,DewpointF,PressureIn,WindDirection,WindDirectionDegrees,WindSpeedMPH,WindSpeedGustMPH,Humidity,HourlyPrecipIn,Conditions,Clouds,dailyrainin,SoftwareType,DateUTC
2013-02-01 00:00:00,30.8,16.5,29.90,NNW,338,0.0,0.4,55,0.00,,,0.00,WUHU216HW,2013-02-01 05:00:00,
2013-02-01 00:01:00,30.8,16.5,29.90,NNW,338,0.0,0.4,55,0.00,,,0.00,WUHU216HW,2013-02-01 05:01:00,
2013-02-01 00:02:00,30.8,16.5,29.90,North,0,0.0,0.4,55,0.00,,,0.00,WUHU216HW,2013-02-01 05:02:00,
2013-02-01 00:07:00,30.6,16.3,29.89,North,0,0.2,0.4,55,0.00,,,0.00,WUHU216HW,2013-02-01 05:07:00,
2013-02-01 00:12:00,30.4,16.1,29.89,North,0,0.0,0.2,55,0.00,,,0.00,WUHU216HW,2013-02-01 05:12:00,
2013-02-01 00:17:00,30.2,16.4,29.88,NNE,23,0.0,0.0,56,0.00,,,0.00,WUHU216HW,2013-02-01 05:17:00,
2013-02-01 00:22:00,30.1,16.2,29.88,North,0,0.0,0.2,56,0.00,,,0.00,WUHU216HW,2013-02-01 05:22:00,
2013-02-01 00:27:00,29.9,16.0,29.87,North,0,0.0,0.2,56,0.00,,,0.00,WUHU216HW,2013-02-01 05:27:00,
2013-02-01 00:32:00,29.7,15.8,29.87,North,0,0.0,0.2,56,0.00,,,0.00,WUHU216HW,2013-02-01 05:32:00,
2013-02-01 00:37:00,29.3,15.9,29.87,North,0,0.0,0.0,57,0.00,,,0.00,WUHU216HW,2013-02-01 05:37:00,
2013-02-01 00:42:00,29.2,15.8,29.87,North,0,0.0,0.0,57,0.00,,,0.00,WUHU216HW,2013-02-01 05:42:00,
2013-02-01 00:47:00,28.8,15.8,29.87,North,0,0.0,0.0,58,0.00,,,0.00,WUHU216HW,2013-02-01 05:47:00,
2013-02-01 00:53:00,28.4,15.6,29.86,North,0,0.0,0.0,58,0.00,,,0.00,WUHU216HW,2013-02-01 05:53:00,
2013-02-01 00:58:00,28.4,15.6,29.87,North,0,0.0,0.0,58,0.00,,,0.00,WUHU216HW,2013-02-01 05:58:00,
2013-02-01 01:03:00,28.4,15.9,29.87,NNW,338,0.0,0.2,59,0.00,,,0.00,WUHU216HW,2013-02-01 06:03:00,
2013-02-01 01:08:00,28.3,15.8,29.87,North,0,0.0,0.2,59,0.00,,,0.00,WUHU216HW,2013-02-01 06:08:00,
2013-02-01 01:13:00,28.4,16.4,29.87,North,0,0.0,0.2,60,0.00,,,0.00,WUHU216HW,2013-02-01 06:13:00,
2013-02-01 01:18:00,28.3,16.2,29.87,North,0,0.0,0.2,60,0.00,,,0.00,WUHU216HW,2013-02-01 06:18:00,
2013-02-01 01:23:00,28.3,16.2,29.87,North,0,0.0,0.4,60,0.00,,,0.00,WUHU216HW,2013-02-01 06:23:00,
2013-02-01 01:28:00,28.1,16.0,29.86,North,0,0.0,0.4,60,0.00,,,0.00,WUHU216HW,2013-02-01 06:28:00,
2013-02-01 01:33:00,28.1,16.4,29.87,NNW,338,0.0,0.4,61,0.00,,,0.00,WUHU216HW,2013-02-01 06:33:00,
2013-02-01 01:38:00,28.3,16.6,29.88,NNW,338,0.4,1.8,61,0.00,,,0.00,WUHU216HW,2013-02-01 06:38:00,
2013-02-01 01:43:00,28.4,17.1,29.87,North,0,0.4,1.8,62,0.00,,,0.00,WUHU216HW,2013-02-01 06:43:00,
2013-02-01 01:48:00,29.2,17.7,29.87,NNE,23,0.2,0.4,62,0.00,,,0.00,WUHU216HW,2013-02-01 06:48:00,
2013-02-01 01:53:00,29.5,18.1,29.87,North,0,0.2,0.2,62,0.00,,,0.00,WUHU216HW,2013-02-01 06:53:00,
2013-02-01 01:58:00,29.9,18.0,29.87,North,0,0.0,0.2,61,0.00,,,0.00,WUHU216HW,2013-02-01 06:58:00,
2013-02-01 02:03:00,30.2,18.4,29.87,NNE,23,0.2,0.7,61,0.00,,,0.00,WUHU216HW,2013-02-01 07:03:00,
2013-02-01 02:08:00,30.6,18.7,29.87,NNW,338,0.0,0.7,61,0.00,,,0.00,WUHU216HW,2013-02-01 07:08:00,
2013-02-01 02:13:00,30.6,18.7,29.86,NE,45,0.0,0.9,61,0.00,,,0.00,WUHU216HW,2013-02-01 07:13:00,
2013-02-01 02:18:00,31.0,19.1,29.86,NNW,338,0.0,0.9,61,0.00,,,0.00,WUHU216HW,2013-02-01 07:18:00,
2013-02-01 02:23:00,31.1,18.9,29.86,North,0,0.0,0.9,60,0.00,,,0.00,WUHU216HW,2013-02-01 07:23:00,
2013-02-01 02:28:00,31.3,19.1,29.86,West,270,0.0,0.4,60,0.00,,,0.00,WUHU216HW,2013-02-01 07:28:00,
2013-02-01 02:34:00,31.3,19.1,29.85,NNW,338,0.0,0.2,60,0.00,,,0.00,WUHU216HW,2013-02-01 07:34:00,
2013-02-01 02:39:00,31.3,19.1,29.85,NW,315,0.0,0.2,60,0.00,,,0.00,WUHU216HW,2013-02-01 07:39:00,
2013-02-01 02:44:00,31.5,19.3,29.84,NW,315,0.0,0.0,60,0.00,,,0.00,WUHU216HW,2013-02-01 07:44:00,
2013-02-01 02:49:00,31.5,19.3,29.84,NNW,338,0.0,0.0,60,0.00,,,0.00,WUHU216HW,2013-02-01 07:49:00,
2013-02-01 02:54:00,31.7,19.4,29.83,WSW,248,1.1,1.1,60,0.00,,,0.00,WUHU216HW,2013-02-01 07:54:00,
2013-02-01 02:59:00,31.9,19.6,29.83,NE,45,0.4,1.1,60,0.00,,,0.00,WUHU216HW,2013-02-01 07:59:00,
2013-02-01 03:04:00,32.0,19.8,29.84,North,0,0.0,0.9,60,0.00,,,0.00,WUHU216HW,2013-02-01 08:04:00,
2013-02-01 03:09:00,32.0,19.8,29.83,NNW,338,0.0,0.9,60,0.00,,,0.00,WUHU216HW,2013-02-01 08:09:00,
2013-02-01 03:14:00,32.0,19.8,29.83,NNW,338,0.0,0.0,60,0.00,,,0.00,WUHU216HW,2013-02-01 08:14:00,
2013-02-01 03:19:00,32.0,19.8,29.82,South,180,0.0,0.0,60,0.00,,,0.00,WUHU216HW,2013-02-01 08:19:00,
2013-02-01 03:24:00,32.2,20.0,29.82,WNW,293,0.0,0.4,60,0.00,,,0.00,WUHU216HW,2013-02-01 08:24:00,
2013-02-01 03:29:00,32.4,20.2,29.82,NW,315,0.0,0.4,60,0.00,,,0.00,WUHU216HW,2013-02-01 08:29:00,
2013-02-01 03:34:00,32.4,20.2,29.82,NNW,338,0.0,0.4,60,0.00,,,0.00,WUHU216HW,2013-02-01 08:34:00,
2013-02-01 03:39:00,32.4,20.2,29.81,ENE,68,0.0,0.4,60,0.00,,,0.00,WUHU216HW,2013-02-01 08:39:00,
2013-02-01 03:44:00,32.6,20.6,29.81,ENE,68,0.0,0.0,61,0.00,,,0.00,WUHU216HW,2013-02-01 08:44:00,
2013-02-01 03:49:00,32.6,20.6,29.81,NE,45,0.0,0.0,61,0.00,,,0.00,WUHU216HW,2013-02-01 08:49:00,
2013-02-01 03:54:00,32.8,20.8,29.80,SSW,203,0.2,0.2,61,0.00,,,0.00,WUHU216HW,2013-02-01 08:54:00,
2013-02-01 03:59:00,32.8,20.8,29.80,ENE,68,0.2,0.2,61,0.00,,,0.00,WUHU216HW,2013-02-01 08:59:00,
2013-02-01 04:04:00,32.8,20.8,29.80,North,0,0.4,0.4,61,0.00,,,0.00,WUHU216HW,2013-02-01 09:04:00,
2013-02-01 04:09:00,32.9,21.0,29.80,NNW,338,0.0,0.4,61,0.00,,,0.00,WUHU216HW,2013-02-01 09:09:00,
2013-02-01 04:14:00,33.1,21.2,29.79,North,0,0.4,0.4,61,0.00,,,0.00,WUHU216HW,2013-02-01 09:14:00,
2013-02-01 04:16:00,33.1,21.2,29.79,NE,45,1.1,1.1,61,0.00,,,0.00,WUHU216HW,2013-02-01 09:16:00,
2013-02-01 04:19:00,33.1,21.2,29.79,NE,45,1.1,1.1,61,0.00,,,0.00,WUHU216HW,2013-02-01 09:19:00,
2013-02-01 04:24:00,33.1,21.2,29.79,NE,45,1.1,1.1,61,0.00,,,0.00,WUHU216HW,2013-02-01 09:24:00,
2013-02-01 04:46:00,34.2,22.5,29.79,NNW,338,0.0,0.0,62,0.00,,,0.00,WUHU216HW,2013-02-01 09:46:00,
2013-02-01 04:51:00,34.2,22.5,29.79,SW,225,0.4,1.3,62,0.00,,,0.00,WUHU216HW,2013-02-01 09:51:00,
2013-02-01 04:56:00,34.2,22.5,29.79,NNW,338,0.4,1.3,62,0.00,,,0.00,WUHU216HW,2013-02-01 09:56:00,
2013-02-01 05:01:00,34.2,22.5,29.79,NNE,23,0.4,0.4,62,0.00,,,0.00,WUHU216HW,2013-02-01 10:01:00,
2013-02-01 05:06:00,34.2,22.5,29.79,North,0,0.0,0.9,62,0.00,,,0.00,WUHU216HW,2013-02-01 10:06:00,
2013-02-01 05:11:00,34.2,22.5,29.79,NE,45,1.3,1.3,62,0.00,,,0.00,WUHU216HW,2013-02-01 10:11:00,
2013-02-01 05:16:00,34.2,22.9,29.79,NW,315,3.4,3.4,63,0.00,,,0.00,WUHU216HW,2013-02-01 10:16:00,
2013-02-01 05:21:00,34.0,23.0,29.79,North,0,1.3,3.4,64,0.00,,,0.00,WUHU216HW,2013-02-01 10:21:00,
2013-02-01 05:26:00,33.7,23.8,29.79,North,0,1.3,3.4,67,0.00,,,0.00,WUHU216HW,2013-02-01 10:26:00,
2013-02-01 05:32:00,33.5,23.9,29.79,NW,315,1.1,3.4,68,0.00,,,0.00,WUHU216HW,2013-02-01 10:32:00,
2013-02-01 05:37:00,33.3,24.2,29.79,NNW,338,0.9,3.4,69,0.00,,,0.00,WUHU216HW,2013-02-01 10:37:00,
2013-02-01 05:41:00,33.1,24.4,29.79,North,0,1.1,1.1,70,0.00,,,0.00,WUHU216HW,2013-02-01 10:41:00,
2013-02-01 05:42:00,33.1,24.4,29.79,North,0,1.1,3.4,70,0.00,,,0.00,WUHU216HW,2013-02-01 10:42:00,
2013-02-01 05:47:00,33.1,24.4,29.79,North,0,1.1,2.5,70,0.00,,,0.00,WUHU216HW,2013-02-01 10:47:00,
2013-02-01 06:00:00,33.3,24.6,29.81,ENE,68,0.4,0.4,70,0.00,,,0.00,WUHU216HW,2013-02-01 11:00:00,
2013-02-01 06:05:00,33.5,24.7,29.82,ESE,113,0.2,3.1,70,0.00,,,0.00,WUHU216HW,2013-02-01 11:05:00,
2013-02-01 06:10:00,33.5,24.3,29.83,SE,135,0.7,3.1,69,0.00,,,0.00,WUHU216HW,2013-02-01 11:10:00,
2013-02-01 06:15:00,33.5,23.9,29.83,NE,45,2.2,2.5,68,0.00,,,0.00,WUHU216HW,2013-02-01 11:15:00,
2013-02-01 06:20:00,33.1,23.7,29.84,ESE,113,2.0,2.2,68,0.00,,,0.00,WUHU216HW,2013-02-01 11:20:00,
2013-02-01 06:25:00,32.9,23.5,29.85,WSW,248,5.4,5.4,68,0.00,,,0.00,WUHU216HW,2013-02-01 11:25:00,
2013-02-01 06:30:00,32.8,23.3,29.85,ENE,68,1.6,5.4,68,0.00,,,0.00,WUHU216HW,2013-02-01 11:30:00,
2013-02-01 06:35:00,32.2,23.2,29.86,East,90,3.4,4.3,69,0.00,,,0.00,WUHU216HW,2013-02-01 11:35:00,
2013-02-01 06:40:00,31.5,23.2,29.87,East,90,1.8,3.4,71,0.00,,,0.00,WUHU216HW,2013-02-01 11:40:00,
2013-02-01 06:45:00,31.0,23.3,29.87,SW,225,0.7,4.5,73,0.00,,,0.00,WUHU216HW,2013-02-01 11:45:00,
2013-02-01 06:50:00,30.4,23.8,29.88,ESE,113,2.0,4.5,76,0.00,,,0.00,WUHU216HW,2013-02-01 11:50:00,
2013-02-01 06:55:00,30.1,23.4,29.88,ESE,113,0.7,3.4,76,0.00,,,0.00,WUHU216HW,2013-02-01 11:55:00,
2013-02-01 07:01:00,30.1,24.0,29.89,East,90,2.7,3.4,78,0.00,,,0.00,WUHU216HW,2013-02-01 12:01:00,
2013-02-01 07:06:00,29.9,23.9,29.89,SE,135,2.5,3.4,78,0.00,,,0.00,WUHU216HW,2013-02-01 12:06:00,
2013-02-01 07:11:00,29.5,23.5,29.89,NE,45,2.0,2.9,78,0.00,,,0.00,WUHU216HW,2013-02-01 12:11:00,
2013-02-01 07:16:00,29.2,22.9,29.89,ENE,68,2.2,3.6,77,0.00,,,0.00,WUHU216HW,2013-02-01 12:16:00,
2013-02-01 07:21:00,29.2,22.9,29.89,SSW,203,1.8,3.6,77,0.00,,,0.00,WUHU216HW,2013-02-01 12:21:00,
2013-02-01 07:26:00,29.2,22.9,29.89,NE,45,0.7,1.8,77,0.00,,,0.00,WUHU216HW,2013-02-01 12:26:00,
2013-02-01 07:31:00,29.2,22.5,29.89,ENE,68,0.0,2.9,76,0.00,,,0.00,WUHU216HW,2013-02-01 12:31:00,
2013-02-01 07:36:00,29.3,22.7,29.90,ESE,113,0.7,2.9,76,0.00,,,0.00,WUHU216HW,2013-02-01 12:36:00,
2013-02-01 07:41:00,29.3,22.4,29.90,ESE,113,1.8,1.8,75,0.00,,,0.00,WUHU216HW,2013-02-01 12:41:00,
2013-02-01 07:46:00,29.3,22.4,29.91,East,90,3.4,3.4,75,0.00,,,0.00,WUHU216HW,2013-02-01 12:46:00,
2013-02-01 07:51:00,29.5,22.5,29.92,South,180,2.0,3.4,75,0.00,,,0.00,WUHU216HW,2013-02-01 12:51:00,
2013-02-01 07:56:00,29.5,22.2,29.92,SSW,203,4.3,4.3,74,0.00,,,0.00,WUHU216HW,2013-02-01 12:56:00,
2013-02-01 08:01:00,29.5,22.2,29.93,SSW,203,2.0,4.3,74,0.00,,,0.00,WUHU216HW,2013-02-01 13:01:00,
2013-02-01 08:06:00,29.5,21.9,29.93,ESE,113,0.4,2.0,73,0.00,,,0.00,WUHU216HW,2013-02-01 13:06:00,
2013-02-01 08:12:00,29.7,22.1,29.94,SE,135,2.7,4.0,73,0.00,,,0.00,WUHU216HW,2013-02-01 13:12:00,
2013-02-01 08:17:00,29.5,21.6,29.94,ENE,68,4.0,4.0,72,0.00,,,0.00,WUHU216HW,2013-02-01 13:17:00,
2013-02-01 08:22:00,29.5,21.6,29.94,SE,135,1.1,4.0,72,0.00,,,0.00,WUHU216HW,2013-02-01 13:22:00,
2013-02-01 08:27:00,29.5,21.2,29.94,ESE,113,4.9,4.9,71,0.00,,,0.00,WUHU216HW,2013-02-01 13:27:00,
2013-02-01 08:32:00,29.7,21.2,29.95,East,90,3.4,4.9,70,0.00,,,0.00,WUHU216HW,2013-02-01 13:32:00,
2013-02-01 08:37:00,29.9,21.2,29.95,ESE,113,1.1,3.4,70,0.00,,,0.00,WUHU216HW,2013-02-01 13:37:00,
2013-02-01 08:42:00,29.9,21.6,29.97,ESE,113,2.2,3.4,71,0.00,,,0.00,WUHU216HW,2013-02-01 13:42:00,
2013-02-01 08:47:00,29.3,21.8,29.97,ESE,113,2.0,4.5,73,0.00,,,0.00,WUHU216HW,2013-02-01 13:47:00,
2013-02-01 08:52:00,29.2,21.9,29.97,SE,135,3.4,4.5,74,0.00,,,0.00,WUHU216HW,2013-02-01 13:52:00,
2013-02-01 08:57:00,29.2,21.2,29.98,East,90,2.5,8.5,72,0.00,,,0.00,WUHU216HW,2013-02-01 13:57:00,
2013-02-01 09:02:00,29.2,19.5,29.98,ESE,113,2.9,8.5,67,0.00,,,0.00,WUHU216HW,2013-02-01 14:02:00,
2013-02-01 09:07:00,29.2,18.8,29.99,SE,135,3.1,5.4,65,0.00,,,0.00,WUHU216HW,2013-02-01 14:07:00,
2013-02-01 09:12:00,29.2,18.1,29.99,SE,135,4.0,5.4,63,0.00,,,0.00,WUHU216HW,2013-02-01 14:12:00,
2013-02-01 09:18:00,29.3,18.3,30.00,SE,135,1.1,4.0,63,0.00,,,0.00,WUHU216HW,2013-02-01 14:18:00,
2013-02-01 09:23:00,29.7,18.3,30.01,SE,135,3.4,6.0,62,0.00,,,0.00,WUHU216HW,2013-02-01 14:23:00,
2013-02-01 09:28:00,29.7,17.9,30.02,South,180,5.4,6.0,61,0.00,,,0.00,WUHU216HW,2013-02-01 14:28:00,
2013-02-01 09:33:00,29.2,15.8,30.01,East,90,2.5,5.4,57,0.00,,,0.00,WUHU216HW,2013-02-01 14:33:00,
2013-02-01 09:38:00,29.2,15.4,30.02,SE,135,2.5,4.7,56,0.00,,,0.00,WUHU216HW,2013-02-01 14:38:00,
2013-02-01 09:43:00,29.0,15.2,30.02,North,0,4.5,5.6,56,0.00,,,0.00,WUHU216HW,2013-02-01 14:43:00,
2013-02-01 09:48:00,28.8,14.7,30.02,SSE,158,6.9,6.9,55,0.00,,,0.00,WUHU216HW,2013-02-01 14:48:00,
2013-02-01 09:53:00,28.8,13.8,30.03,South,180,2.2,6.9,53,0.00,,,0.00,WUHU216HW,2013-02-01 14:53:00,
2013-02-01 09:58:00,28.4,13.5,30.03,ENE,68,2.5,6.0,53,0.00,,,0.00,WUHU216HW,2013-02-01 14:58:00,
2013-02-01 10:03:00,28.6,13.2,30.03,West,270,4.0,5.6,52,0.00,,,0.00,WUHU216HW,2013-02-01 15:03:00,
2013-02-01 10:08:00,28.8,13.4,30.04,ESE,113,2.9,5.4,52,0.00,,,0.00,WUHU216HW,2013-02-01 15:08:00,
2013-02-01 10:13:00,28.6,12.8,30.04,ENE,68,8.5,8.5,51,0.00,,,0.00,WUHU216HW,2013-02-01 15:13:00,
2013-02-01 10:18:00,28.4,12.2,30.04,North,0,0.9,8.5,50,0.00,,,0.00,WUHU216HW,2013-02-01 15:18:00,
2013-02-01 10:23:00,28.6,13.2,30.04,ENE,68,1.3,4.7,52,0.00,,,0.00,WUHU216HW,2013-02-01 15:23:00,
2013-02-01 10:28:00,28.6,12.4,30.05,East,90,5.4,7.4,50,0.00,,,0.00,WUHU216HW,2013-02-01 15:28:00,
2013-02-01 10:33:00,28.8,12.1,30.05,ENE,68,2.7,7.4,49,0.00,,,0.00,WUHU216HW,2013-02-01 15:33:00,
2013-02-01 10:38:00,28.8,12.6,30.06,ENE,68,3.6,3.6,50,0.00,,,0.00,WUHU216HW,2013-02-01 15:38:00,
2013-02-01 10:43:00,28.4,11.3,30.07,SSW,203,1.6,5.4,48,0.00,,,0.00,WUHU216HW,2013-02-01 15:43:00,
2013-02-01 10:48:00,28.3,11.1,30.07,NNE,23,1.1,5.4,48,0.00,,,0.00,WUHU216HW,2013-02-01 15:48:00,
2013-02-01 10:53:00,28.6,11.9,30.07,NNW,338,4.3,4.7,49,0.00,,,0.00,WUHU216HW,2013-02-01 15:53:00,
2013-02-01 10:58:00,29.0,12.3,30.07,SSE,158,2.2,4.7,49,0.00,,,0.00,WUHU216HW,2013-02-01 15:58:00,
2013-02-01 11:03:00,28.8,11.1,30.07,SE,135,2.5,6.9,47,0.00,,,0.00,WUHU216HW,2013-02-01 16:03:00,
2013-02-01 11:08:00,29.2,11.3,30.08,South,180,4.0,6.9,47,0.00,,,0.00,WUHU216HW,2013-02-01 16:08:00,
2013-02-01 11:13:00,29.3,11.5,30.08,SSW,203,1.8,4.9,47,0.00,,,0.00,WUHU216HW,2013-02-01 16:13:00,
2013-02-01 11:18:00,29.3,12.1,30.09,SE,135,1.8,5.1,48,0.00,,,0.00,WUHU216HW,2013-02-01 16:18:00,
2013-02-01 11:23:00,29.2,10.4,30.09,ENE,68,1.6,6.9,45,0.00,,,0.00,WUHU216HW,2013-02-01 16:23:00,
2013-02-01 11:28:00,29.2,10.4,30.09,NE,45,2.0,6.9,45,0.00,,,0.00,WUHU216HW,2013-02-01 16:28:00,
2013-02-01 11:33:00,29.2,10.4,30.10,SW,225,3.8,5.8,45,0.00,,,0.00,WUHU216HW,2013-02-01 16:33:00,
2013-02-01 11:38:00,28.8,10.1,30.10,SW,225,2.2,5.8,45,0.00,,,0.00,WUHU216HW,2013-02-01 16:38:00,
2013-02-01 11:43:00,29.3,11.1,30.10,SSE,158,2.7,5.6,46,0.00,,,0.00,WUHU216HW,2013-02-01 16:43:00,
2013-02-01 11:48:00,29.7,11.3,30.10,SSW,203,4.7,5.6,46,0.00,,,0.00,WUHU216HW,2013-02-01 16:48:00,
2013-02-01 11:53:00,29.7,11.3,30.11,ENE,68,2.5,6.3,46,0.00,,,0.00,WUHU216HW,2013-02-01 16:53:00,
2013-02-01 11:58:00,29.5,10.7,30.11,ENE,68,6.9,6.9,45,0.00,,,0.00,WUHU216HW,2013-02-01 16:58:00,
2013-02-01 12:04:00,29.7,10.9,30.11,WNW,293,1.1,6.9,45,0.00,,,0.00,WUHU216HW,2013-02-01 17:04:00,
2013-02-01 12:08:00,29.7,11.3,30.11,ESE,113,2.2,4.5,46,0.00,,,0.00,WUHU216HW,2013-02-01 17:08:00,
2013-02-01 12:14:00,29.9,10.5,30.11,ESE,113,2.5,5.8,44,0.00,,,0.00,WUHU216HW,2013-02-01 17:14:00,
2013-02-01 12:19:00,29.5,10.2,30.11,ESE,113,2.5,5.8,44,0.00,,,0.00,WUHU216HW,2013-02-01 17:19:00,
2013-02-01 12:24:00,29.2,9.9,30.12,SE,135,3.4,4.7,44,0.00,,,0.00,WUHU216HW,2013-02-01 17:24:00,
2013-02-01 12:29:00,29.0,10.2,30.11,ESE,113,1.1,6.7,45,0.00,,,0.00,WUHU216HW,2013-02-01 17:29:00,
2013-02-01 12:34:00,29.0,10.2,30.11,WSW,248,5.4,6.7,45,0.00,,,0.00,WUHU216HW,2013-02-01 17:34:00,
2013-02-01 12:39:00,29.5,10.7,30.11,NE,45,3.4,6.5,45,0.00,,,0.00,WUHU216HW,2013-02-01 17:39:00,
2013-02-01 12:44:00,29.7,10.9,30.11,East,90,3.6,6.5,45,0.00,,,0.00,WUHU216HW,2013-02-01 17:44:00,
2013-02-01 12:49:00,29.9,11.0,30.11,ENE,68,4.3,7.6,45,0.00,,,0.00,WUHU216HW,2013-02-01 17:49:00,
2013-02-01 12:54:00,30.1,11.2,30.12,NE,45,2.5,7.6,45,0.00,,,0.00,WUHU216HW,2013-02-01 17:54:00,
2013-02-01 12:59:00,30.1,10.7,30.12,SE,135,3.1,6.9,44,0.00,,,0.00,WUHU216HW,2013-02-01 17:59:00,
2013-02-01 13:04:00,30.1,11.2,30.12,NNW,338,2.0,6.9,45,0.00,,,0.00,WUHU216HW,2013-02-01 18:04:00,
2013-02-01 13:09:00,30.2,10.8,30.12,ESE,113,7.2,7.2,44,0.00,,,0.00,WUHU216HW,2013-02-01 18:09:00,
2013-02-01 13:14:00,29.7,10.4,30.12,NE,45,3.4,7.2,44,0.00,,,0.00,WUHU216HW,2013-02-01 18:14:00,
2013-02-01 13:19:00,29.7,10.9,30.12,East,90,6.9,6.9,45,0.00,,,0.00,WUHU216HW,2013-02-01 18:19:00,
2013-02-01 13:24:00,30.1,11.2,30.12,ENE,68,6.3,6.9,45,0.00,,,0.00,WUHU216HW,2013-02-01 18:24:00,
2013-02-01 13:29:00,30.1,10.7,30.13,ENE,68,2.5,6.9,44,0.00,,,0.00,WUHU216HW,2013-02-01 18:29:00,
2013-02-01 13:34:00,30.1,10.7,30.13,NE,45,2.5,6.9,44,0.00,,,0.00,WUHU216HW,2013-02-01 18:34:00,
2013-02-01 13:39:00,30.1,10.7,30.13,ENE,68,2.5,6.0,44,0.00,,,0.00,WUHU216HW,2013-02-01 18:39:00,
2013-02-01 13:44:00,30.1,10.7,30.13,SSW,203,1.8,5.1,44,0.00,,,0.00,WUHU216HW,2013-02-01 18:44:00,
2013-02-01 13:50:00,29.9,10.5,30.14,ENE,68,5.1,5.1,44,0.00,,,0.00,WUHU216HW,2013-02-01 18:50:00,
2013-02-01 13:55:00,29.9,10.0,30.14,ESE,113,2.5,5.1,43,0.00,,,0.00,WUHU216HW,2013-02-01 18:55:00,
2013-02-01 14:00:00,29.9,10.0,30.14,SSE,158,3.6,4.7,43,0.00,,,0.00,WUHU216HW,2013-02-01 19:00:00,
2013-02-01 14:05:00,29.5,9.2,30.15,NNW,338,6.9,6.9,42,0.00,,,0.00,WUHU216HW,2013-02-01 19:05:00,
2013-02-01 14:10:00,29.5,9.7,30.14,SSE,158,1.6,6.9,43,0.00,,,0.00,WUHU216HW,2013-02-01 19:10:00,
2013-02-01 14:15:00,30.2,10.8,30.15,SSE,158,2.9,4.3,44,0.00,,,0.00,WUHU216HW,2013-02-01 19:15:00,
2013-02-01 14:20:00,30.2,9.8,30.15,WSW,248,3.4,4.3,42,0.00,,,0.00,WUHU216HW,2013-02-01 19:20:00,
2013-02-01 14:25:00,29.7,9.4,30.15,East,90,5.4,5.4,42,0.00,,,0.00,WUHU216HW,2013-02-01 19:25:00,
2013-02-01 14:30:00,29.5,9.2,30.15,ENE,68,1.8,5.4,42,0.00,,,0.00,WUHU216HW,2013-02-01 19:30:00,
2013-02-01 14:35:00,29.3,8.6,30.16,East,90,3.4,4.0,41,0.00,,,0.00,WUHU216HW,2013-02-01 19:35:00,
2013-02-01 14:40:00,29.2,8.8,30.16,SSE,158,1.3,3.8,42,0.00,,,0.00,WUHU216HW,2013-02-01 19:40:00,
2013-02-01 14:45:00,28.8,8.0,30.16,SE,135,1.6,4.0,41,0.00,,,0.00,WUHU216HW,2013-02-01 19:45:00,
2013-02-01 14:50:00,28.4,7.8,30.16,SE,135,2.9,4.0,41,0.00,,,0.00,WUHU216HW,2013-02-01 19:50:00,
2013-02-01 14:55:00,28.4,7.8,30.17,WNW,293,5.1,5.4,41,0.00,,,0.00,WUHU216HW,2013-02-01 19:55:00,
2013-02-01 15:00:00,28.3,7.6,30.17,North,0,2.7,10.5,41,0.00,,,0.00,WUHU216HW,2013-02-01 20:00:00,
2013-02-01 15:05:00,28.4,7.8,30.17,NW,315,1.6,10.5,41,0.00,,,0.00,WUHU216HW,2013-02-01 20:05:00,
2013-02-01 15:11:00,28.1,6.8,30.17,ESE,113,4.7,8.7,40,0.00,,,0.00,WUHU216HW,2013-02-01 20:11:00,
2013-02-01 15:16:00,28.3,8.0,30.17,ENE,68,2.2,8.7,42,0.00,,,0.00,WUHU216HW,2013-02-01 20:16:00,
2013-02-01 15:21:00,28.6,8.4,30.17,ENE,68,4.3,4.3,42,0.00,,,0.00,WUHU216HW,2013-02-01 20:21:00,
2013-02-01 15:26:00,28.8,7.6,30.17,ENE,68,6.3,9.2,40,0.00,,,0.00,WUHU216HW,2013-02-01 20:26:00,
2013-02-01 15:31:00,28.8,8.6,30.17,WSW,248,2.7,9.2,42,0.00,,,0.00,WUHU216HW,2013-02-01 20:31:00,
2013-02-01 15:36:00,29.0,8.2,30.18,East,90,5.1,5.1,41,0.00,,,0.00,WUHU216HW,2013-02-01 20:36:00,
2013-02-01 15:41:00,28.8,7.6,30.18,SSE,158,2.0,5.1,40,0.00,,,0.00,WUHU216HW,2013-02-01 20:41:00,
2013-02-01 15:46:00,28.8,7.6,30.18,East,90,2.7,6.0,40,0.00,,,0.00,WUHU216HW,2013-02-01 20:46:00,
2013-02-01 15:51:00,28.8,8.0,30.19,ESE,113,1.1,6.0,41,0.00,,,0.00,WUHU216HW,2013-02-01 20:51:00,
2013-02-01 15:57:00,29.2,8.8,30.19,ESE,113,1.8,2.5,42,0.00,,,0.00,WUHU216HW,2013-02-01 20:57:00,
2013-02-01 16:02:00,29.2,8.8,30.19,North,0,4.5,4.5,42,0.00,,,0.00,WUHU216HW,2013-02-01 21:02:00,
2013-02-01 16:07:00,29.2,8.4,30.20,NNW,338,1.1,4.5,41,0.00,,,0.00,WUHU216HW,2013-02-01 21:07:00,
2013-02-01 16:12:00,29.2,8.8,30.20,ESE,113,0.0,4.9,42,0.00,,,0.00,WUHU216HW,2013-02-01 21:12:00,
2013-02-01 16:17:00,29.3,9.0,30.20,East,90,0.4,4.0,42,0.00,,,0.00,WUHU216HW,2013-02-01 21:17:00,
2013-02-01 16:22:00,29.5,9.2,30.20,WNW,293,0.9,4.0,42,0.00,,,0.00,WUHU216HW,2013-02-01 21:22:00,
2013-02-01 16:27:00,29.2,8.4,30.21,SE,135,2.5,4.0,41,0.00,,,0.00,WUHU216HW,2013-02-01 21:27:00,
2013-02-01 16:32:00,28.6,7.8,30.21,ESE,113,4.0,4.0,41,0.00,,,0.00,WUHU216HW,2013-02-01 21:32:00,
2013-02-01 16:37:00,28.1,7.4,30.22,ENE,68,1.1,4.0,41,0.00,,,0.00,WUHU216HW,2013-02-01 21:37:00,
2013-02-01 16:42:00,27.9,7.8,30.22,ENE,68,4.0,4.0,42,0.00,,,0.00,WUHU216HW,2013-02-01 21:42:00,
2013-02-01 16:47:00,27.7,7.6,30.22,ENE,68,1.6,4.0,42,0.00,,,0.00,WUHU216HW,2013-02-01 21:47:00,
2013-02-01 16:52:00,27.5,7.4,30.22,ENE,68,4.3,4.3,42,0.00,,,0.00,WUHU216HW,2013-02-01 21:52:00,
2013-02-01 16:57:00,27.4,7.8,30.23,SE,135,3.1,4.3,43,0.00,,,0.00,WUHU216HW,2013-02-01 21:57:00,
2013-02-01 17:02:00,27.2,7.6,30.23,ENE,68,1.8,3.4,43,0.00,,,0.00,WUHU216HW,2013-02-01 22:02:00,
2013-02-01 17:08:00,27.0,7.4,30.23,NE,45,0.7,3.1,43,0.00,,,0.00,WUHU216HW,2013-02-01 22:08:00,
2013-02-01 17:13:00,27.0,7.8,30.23,North,0,0.9,2.9,44,0.00,,,0.00,WUHU216HW,2013-02-01 22:13:00,
2013-02-01 17:18:00,26.8,7.7,30.23,ENE,68,1.1,2.9,44,0.00,,,0.00,WUHU216HW,2013-02-01 22:18:00,
2013-02-01 17:23:00,26.6,7.6,30.23,ENE,68,2.2,3.8,44,0.00,,,0.00,WUHU216HW,2013-02-01 22:23:00,
2013-02-01 17:28:00,26.5,7.4,30.24,ENE,68,4.0,4.0,44,0.00,,,0.00,WUHU216HW,2013-02-01 22:28:00,
2013-02-01 17:33:00,26.3,6.8,30.24,ESE,113,3.4,4.7,43,0.00,,,0.00,WUHU216HW,2013-02-01 22:33:00,
2013-02-01 17:38:00,26.1,6.6,30.25,WSW,248,1.1,4.7,43,0.00,,,0.00,WUHU216HW,2013-02-01 22:38:00,
2013-02-01 17:43:00,25.9,6.4,30.25,ESE,113,1.6,3.4,43,0.00,,,0.00,WUHU216HW,2013-02-01 22:43:00,
2013-02-01 17:48:00,25.7,6.8,30.25,NNE,23,0.4,3.4,44,0.00,,,0.00,WUHU216HW,2013-02-01 22:48:00,
2013-02-01 17:53:00,25.6,6.6,30.25,NE,45,1.1,3.8,44,0.00,,,0.00,WUHU216HW,2013-02-01 22:53:00,
2013-02-01 17:58:00,25.6,6.6,30.26,SE,135,1.8,3.8,44,0.00,,,0.00,WUHU216HW,2013-02-01 22:58:00,
2013-02-01 18:03:00,25.4,6.4,30.26,NE,45,3.1,4.7,44,0.00,,,0.00,WUHU216HW,2013-02-01 23:03:00,
2013-02-01 18:08:00,25.2,6.2,30.26,NE,45,1.8,4.7,44,0.00,,,0.00,WUHU216HW,2013-02-01 23:08:00,
2013-02-01 18:13:00,25.0,6.6,30.27,ESE,113,0.7,3.4,45,0.00,,,0.00,WUHU216HW,2013-02-01 23:13:00,
2013-02-01 18:18:00,24.8,6.4,30.27,North,0,0.4,2.2,45,0.00,,,0.00,WUHU216HW,2013-02-01 23:18:00,
2013-02-01 18:23:00,24.8,6.4,30.27,ENE,68,1.8,3.4,45,0.00,,,0.00,WUHU216HW,2013-02-01 23:23:00,
2013-02-01 18:28:00,24.8,6.4,30.28,NNE,23,1.1,3.4,45,0.00,,,0.00,WUHU216HW,2013-02-01 23:28:00,
2013-02-01 18:33:00,24.7,6.8,30.28,ESE,113,1.1,1.8,46,0.00,,,0.00,WUHU216HW,2013-02-01 23:33:00,
2013-02-01 18:38:00,24.5,6.6,30.28,WSW,248,1.6,1.8,46,0.00,,,0.00,WUHU216HW,2013-02-01 23:38:00,
2013-02-01 18:43:00,24.5,6.0,30.28,ENE,68,2.9,2.9,45,0.00,,,0.00,WUHU216HW,2013-02-01 23:43:00,
2013-02-01 18:49:00,24.3,5.4,30.29,ESE,113,1.8,2.9,44,0.00,,,0.00,WUHU216HW,2013-02-01 23:49:00,
2013-02-01 18:54:00,24.3,6.0,30.29,East,90,2.5,2.5,45,0.00,,,0.00,WUHU216HW,2013-02-01 23:54:00,
2013-02-01 18:59:00,24.1,5.8,30.29,North,0,0.0,2.5,45,0.00,,,0.00,WUHU216HW,2013-02-01 23:59:00,
2013-02-01 19:04:00,24.1,5.8,30.30,SSW,203,0.9,2.5,45,0.00,,,0.00,WUHU216HW,2013-02-02 00:04:00,
2013-02-01 19:09:00,23.9,5.6,30.30,ENE,68,1.1,3.4,45,0.00,,,0.00,WUHU216HW,2013-02-02 00:09:00,
2013-02-01 19:14:00,23.9,5.6,30.30,SSW,203,1.3,3.4,45,0.00,,,0.00,WUHU216HW,2013-02-02 00:14:00,
2013-02-01 19:19:00,23.8,5.4,30.31,East,90,1.3,2.7,45,0.00,,,0.00,WUHU216HW,2013-02-02 00:19:00,
2013-02-01 19:24:00,23.8,6.0,30.30,East,90,3.1,3.1,46,0.00,,,0.00,WUHU216HW,2013-02-02 00:24:00,
2013-02-01 19:29:00,23.6,5.8,30.30,East,90,2.5,3.1,46,0.00,,,0.00,WUHU216HW,2013-02-02 00:29:00,
2013-02-01 19:34:00,23.6,5.8,30.30,East,90,2.5,2.5,46,0.00,,,0.00,WUHU216HW,2013-02-02 00:34:00,
2013-02-01 19:59:00,23.4,5.6,30.31,ENE,68,1.6,1.6,46,0.00,,,0.00,WUHU216HW,2013-02-02 00:59:00,
2013-02-01 20:04:00,23.2,5.4,30.32,ENE,68,1.1,1.6,46,0.00,,,0.00,WUHU216HW,2013-02-02 01:04:00,
2013-02-01 20:09:00,23.2,5.4,30.32,ESE,113,1.1,2.2,46,0.00,,,0.00,WUHU216HW,2013-02-02 01:09:00,
2013-02-01 20:14:00,23.0,5.2,30.32,ESE,113,1.3,6.5,46,0.00,,,0.00,WUHU216HW,2013-02-02 01:14:00,
2013-02-01 20:20:00,23.0,5.2,30.32,East,90,1.6,6.5,46,0.00,,,0.00,WUHU216HW,2013-02-02 01:20:00,
2013-02-01 20:24:00,23.0,5.2,30.32,ENE,68,1.1,2.7,46,0.00,,,0.00,WUHU216HW,2013-02-02 01:24:00,
2013-02-01 20:29:00,22.9,5.6,30.32,SE,135,0.7,2.5,47,0.00,,,0.00,WUHU216HW,2013-02-02 01:29:00,
2013-02-01 20:34:00,22.7,5.4,30.32,SE,135,0.4,2.5,47,0.00,,,0.00,WUHU216HW,2013-02-02 01:34:00,
2013-02-01 20:39:00,22.7,5.4,30.32,NE,45,0.4,1.3,47,0.00,,,0.00,WUHU216HW,2013-02-02 01:39:00,
2013-02-01 20:44:00,22.7,5.4,30.33,ENE,68,0.4,1.8,47,0.00,,,0.00,WUHU216HW,2013-02-02 01:44:00,
2013-02-01 20:50:00,22.7,5.4,30.33,West,270,1.6,1.8,47,0.00,,,0.00,WUHU216HW,2013-02-02 01:50:00,
2013-02-01 20:55:00,22.7,5.4,30.33,East,90,0.4,1.8,47,0.00,,,0.00,WUHU216HW,2013-02-02 01:55:00,
2013-02-01 21:00:00,22.5,5.7,30.33,SSE,158,0.7,2.0,48,0.00,,,0.00,WUHU216HW,2013-02-02 02:00:00,
2013-02-01 21:05:00,22.5,5.7,30.33,ENE,68,0.2,2.0,48,0.00,,,0.00,WUHU216HW,2013-02-02 02:05:00,
2013-02-01 21:10:00,22.5,5.7,30.33,East,90,0.4,1.8,48,0.00,,,0.00,WUHU216HW,2013-02-02 02:10:00,
2013-02-01 21:15:00,22.3,5.5,30.34,ENE,68,1.8,1.8,48,0.00,,,0.00,WUHU216HW,2013-02-02 02:15:00,
2013-02-01 21:20:00,22.3,6.0,30.34,ESE,113,1.6,1.8,49,0.00,,,0.00,WUHU216HW,2013-02-02 02:20:00,
2013-02-01 21:25:00,22.3,6.0,30.33,SSW,203,0.4,3.4,49,0.00,,,0.00,WUHU216HW,2013-02-02 02:25:00,
2013-02-01 21:30:00,22.3,6.0,30.34,SE,135,1.1,3.4,49,0.00,,,0.00,WUHU216HW,2013-02-02 02:30:00,
2013-02-01 21:35:00,22.1,5.9,30.34,North,0,2.0,2.2,49,0.00,,,0.00,WUHU216HW,2013-02-02 02:35:00,
2013-02-01 21:40:00,22.1,5.9,30.35,SE,135,0.9,2.2,49,0.00,,,0.00,WUHU216HW,2013-02-02 02:40:00,
2013-02-01 21:45:00,22.0,5.7,30.35,NNW,338,2.5,2.5,49,0.00,,,0.00,WUHU216HW,2013-02-02 02:45:00,
2013-02-01 21:50:00,22.0,5.7,30.35,East,90,1.6,2.5,49,0.00,,,0.00,WUHU216HW,2013-02-02 02:50:00,
2013-02-01 21:55:00,22.0,5.7,30.35,East,90,1.1,2.5,49,0.00,,,0.00,WUHU216HW,2013-02-02 02:55:00,
2013-02-01 22:00:00,22.0,5.7,30.35,East,90,3.4,3.4,49,0.00,,,0.00,WUHU216HW,2013-02-02 03:00:00,
2013-02-01 22:05:00,22.0,5.7,30.35,North,0,1.1,4.7,49,0.00,,,0.00,WUHU216HW,2013-02-02 03:05:00,
2013-02-01 22:11:00,22.0,5.7,30.35,SSW,203,1.1,4.7,49,0.00,,,0.00,WUHU216HW,2013-02-02 03:11:00,
2013-02-01 22:16:00,21.6,5.3,30.36,SE,135,0.0,3.4,49,0.00,,,0.00,WUHU216HW,2013-02-02 03:16:00,
2013-02-01 22:21:00,21.4,5.6,30.36,SW,225,0.0,3.4,50,0.00,,,0.00,WUHU216HW,2013-02-02 03:21:00,
2013-02-01 22:26:00,21.2,5.4,30.36,SW,225,2.2,2.2,50,0.00,,,0.00,WUHU216HW,2013-02-02 03:26:00,
2013-02-01 22:31:00,21.2,5.4,30.36,NNE,23,0.0,2.2,50,0.00,,,0.00,WUHU216HW,2013-02-02 03:31:00,
2013-02-01 22:36:00,21.2,5.4,30.36,East,90,1.8,1.8,50,0.00,,,0.00,WUHU216HW,2013-02-02 03:36:00,
2013-02-01 22:41:00,21.2,5.4,30.36,East,90,0.9,1.8,50,0.00,,,0.00,WUHU216HW,2013-02-02 03:41:00,
2013-02-01 22:46:00,21.2,5.9,30.36,East,90,2.0,2.0,51,0.00,,,0.00,WUHU216HW,2013-02-02 03:46:00,
2013-02-01 22:51:00,21.2,5.9,30.36,ESE,113,0.2,2.9,51,0.00,,,0.00,WUHU216HW,2013-02-02 03:51:00,
2013-02-01 22:56:00,21.1,5.7,30.36,NNW,338,1.1,2.9,51,0.00,,,0.00,WUHU216HW,2013-02-02 03:56:00,
2013-02-01 23:01:00,21.1,5.7,30.37,North,0,0.2,2.7,51,0.00,,,0.00,WUHU216HW,2013-02-02 04:01:00,
2013-02-01 23:06:00,21.1,5.7,30.37,NW,315,1.3,2.7,51,0.00,,,0.00,WUHU216HW,2013-02-02 04:06:00,
2013-02-01 23:11:00,21.1,5.7,30.37,North,0,0.7,2.0,51,0.00,,,0.00,WUHU216HW,2013-02-02 04:11:00,
2013-02-01 23:16:00,20.9,5.5,30.37,NE,45,0.9,1.8,51,0.00,,,0.00,WUHU216HW,2013-02-02 04:16:00,
2013-02-01 23:21:00,20.9,5.5,30.37,NE,45,0.9,1.8,51,0.00,,,0.00,WUHU216HW,2013-02-02 04:21:00,
2013-02-01 23:45:00,20.5,5.6,30.38,NNW,338,1.6,1.6,52,0.00,,,0.00,WUHU216HW,2013-02-02 04:45:00,
2013-02-01 23:50:00,20.5,5.6,30.38,NE,45,0.9,3.4,52,0.00,,,0.00,WUHU216HW,2013-02-02 04:50:00,
2013-02-01 23:55:00,20.5,5.6,30.38,NE,45,1.8,3.4,52,0.00,,,0.00,WUHU216HW,2013-02-02 04:55:00,